FENGYUN 1C DEB, 32332

Orbit data source: Space-Track

FENGYUN 1C DEB, 32332 is space debris in SSO originally from a launch on Mon, 10 May 1999 UTC launched from the Taiyaun Space Center, China (TSC). Fengyun 1C debris stems from the Chinese weather satellite Fengyun-1C, which was intentionally destroyed by a Chinese anti-satellite missile in 2007. This event dramatically increased the amount of space debris, with thousands of trackable fragments posing hazards to satellites and human spaceflight. The Fengyun 1C debris cloud has become a focal point in discussions about space sustainability and the need for international regulations to prevent the creation of new debris.

Loading next visibility...
Identifier
32332, 1999-025CXZ
Orbit
SSO
Country
Flag of CNCN / PRC
Related business
Manufacturer
Unknown
Mission
Spacecraft
Bus & Motor
Unknown
Mass
Unknown
Launch date (UTC)
1999-05-10 (27 years ago)
Launch vehicle
Unknown
Launch site
Taiyaun Space Center, China (TSC)
Object type
Payload
Rocket body
Debris
Shape & HBR
Unknown shape, 0.1 m
Radar Cross Section
Medium (>0.1 m² and <1 m²)

Expand to show TLE details & history
Last TLE update: 5 days ago

TLE from 5 days ago
0 FENGYUN 1C DEB
1 32332U 99025CXZ 26202.42312451  .00001261  00000-0  64880-3 0  9991
2 32332  99.1150 260.3359 0284187  67.2992 295.7948 13.98191036961194
Epoch: 2026-07-21T10:09Z
TLE epoch observation values (Epoch: 2026-07-21T10:09:17.957Z)
Latitude
-0°
Longitude
168.81805°
Altitude
817.77 km
Speed
7.488 km/s
True Right ascension
17h 21m 20s
True Declination
0° 00' 00"
Sunlit
Object was in full shadow at epoch
Visualization orbit readout
Latitude
Unknown
Longitude
Unknown
Altitude
Unknown
Speed
Unknown
Apparent Right ascension
Unknown
Apparent Declination
Unknown
Sunlit
N/A
Visualization observer readout
Local Sidereal Time
23:22:12
Azimuth
Unknown
Elevation
Unknown
Doppler factor
Unknown
Orbital elements
Apogee altitude
1,104.028 km
Perigee altitude
690.512 km
Semi-major axis
7,275.407 km
Eccentricity
0.02842
Inclination
99.115°
RAAN
260.3359°
Arg. of periapsis
67.2992°
True anomaly
292.81808°
Mean anomaly
295.7948°
Eccentric anomaly
294.31092°
Mean motion
3.4975 °/min
Orbital period
102.93 mins
BSTAR
0.0006488
Loading maneuver chart data...
Computing Atmospheric mass density...

Documentation

Showing up to 5 results
|